This is the latest recevied weather packets stored in our database for station/object 9M4RBN-3. If no packets are shown the sender has not sent any weather packets the latest 1 day(s).
| Time | Temp. | Humidity | Pressure | Rain* | Wind** | Luminosity | Snow |
|---|---|---|---|---|---|---|---|
| 1778089904 | 27.78° C | 62% | 1013.9 hPa | - | - | - | - |
| 1778089003 | 27.78° C | 61% | 1014 hPa | - | - | - | - |
| 1778088103 | 27.22° C | 60% | 1014.1 hPa | - | - | - | - |
| 1778087203 | 27.22° C | 59% | 1014.3 hPa | - | - | - | - |
| 1778086303 | 26.67° C | 58% | 1014.5 hPa | - | - | - | - |
| 1778085403 | 26.67° C | 55% | 1014.7 hPa | - | - | - | - |
| 1778084503 | 26.11° C | 52% | 1015 hPa | - | - | - | - |
| 1778078204 | 25.56° C | 44% | 1014.7 hPa | - | - | - | - |
| 1778077304 | 25.56° C | 44% | 1014.5 hPa | - | - | - | - |
| 1778076404 | 26.11° C | 44% | 1014.5 hPa | - | - | - | - |
| 1778066503 | 26.11° C | 47% | 1012.8 hPa | - | - | - | - |
| 1778064703 | 26.11° C | 52% | 1012.3 hPa | - | - | - | - |
| 1778063803 | 26.11° C | 40% | 1012.5 hPa | - | - | - | - |
| 1778062903 | 26.67° C | 45% | 1012 hPa | - | - | - | - |
| 1778062003 | 26.67° C | 60% | 1011.8 hPa | - | - | - | - |
| 1778061103 | 26.11° C | 50% | 1012 hPa | - | - | - | - |
| 1778060203 | 26.67° C | 38% | 1011.6 hPa | - | - | - | - |
| 1778059303 | 26.67° C | 40% | 1011.3 hPa | - | - | - | - |
| 1778055702 | 26.67° C | 48% | 1011.6 hPa | - | - | - | - |
| 1778054802 | 26.67° C | 48% | 1011.6 hPa | - | - | - | - |
| 1778053002 | 26.67° C | 48% | 1012 hPa | - | - | - | - |
| 1778052102 | 26.67° C | 47% | 1011.9 hPa | - | - | - | - |
| 1778051202 | 26.67° C | 47% | 1012 hPa | - | - | - | - |
| 1778050302 | 26.67° C | 48% | 1012.2 hPa | - | - | - | - |
| 1778049402 | 26.67° C | 48% | 1012.5 hPa | - | - | - | - |
* Rain since midnight (hover to see other rain measurements)
** Current wind speed in m/s (hover to see current wind gust speed)